TimeEDT,TemperatureF,Dew PointF,Humidity,Sea Level PressureIn,VisibilityMPH,Wind Direction,Wind SpeedMPH,Gust SpeedMPH,PrecipitationIn,Events,Conditions,WindDirDegrees,DateUTC
12:53 AM,53.1,36.0,52,30.14,10.0,Variable,3.5,-,N/A,,Clear,0,2013-04-07 04:53:00
1:53 AM,52.0,37.0,57,30.15,10.0,South,5.8,-,N/A,,Clear,190,2013-04-07 05:53:00
2:53 AM,52.0,39.0,61,30.14,10.0,SSW,10.4,-,N/A,,Clear,200,2013-04-07 06:53:00
3:53 AM,51.1,39.0,63,30.14,10.0,South,6.9,-,N/A,,Clear,190,2013-04-07 07:53:00
4:53 AM,48.0,39.0,71,30.16,10.0,Calm,Calm,-,N/A,,Clear,0,2013-04-07 08:53:00
5:53 AM,46.9,37.9,71,30.16,10.0,Calm,Calm,-,N/A,,Clear,0,2013-04-07 09:53:00
6:53 AM,46.0,39.0,76,30.17,10.0,Calm,Calm,-,N/A,,Clear,0,2013-04-07 10:53:00
7:53 AM,46.9,39.0,74,30.19,10.0,Calm,Calm,-,N/A,,Clear,0,2013-04-07 11:53:00
8:53 AM,48.0,39.9,74,30.20,10.0,Variable,3.5,-,N/A,,Clear,0,2013-04-07 12:53:00
9:53 AM,53.1,42.1,66,30.20,10.0,South,4.6,-,N/A,,Clear,190,2013-04-07 13:53:00
10:53 AM,59.0,44.1,58,30.19,10.0,SSW,11.5,-,N/A,,Clear,210,2013-04-07 14:53:00
11:53 AM,62.1,43.0,50,30.18,10.0,SW,10.4,19.6,N/A,,Clear,220,2013-04-07 15:53:00
12:53 PM,64.9,44.1,47,30.15,10.0,SSW,11.5,-,N/A,,Clear,210,2013-04-07 16:53:00
1:53 PM,68.0,44.1,42,30.12,10.0,SSW,9.2,17.3,N/A,,Clear,210,2013-04-07 17:53:00
2:53 PM,68.0,43.0,40,30.09,10.0,SSW,11.5,20.7,N/A,,Clear,200,2013-04-07 18:53:00
3:53 PM,70.0,42.1,36,30.07,10.0,SSW,8.1,18.4,N/A,,Clear,200,2013-04-07 19:53:00
4:53 PM,69.1,42.1,38,30.06,10.0,South,11.5,19.6,N/A,,Clear,190,2013-04-07 20:53:00
5:53 PM,68.0,42.1,39,30.06,10.0,SSW,11.5,-,N/A,,Clear,210,2013-04-07 21:53:00
6:53 PM,66.9,42.1,40,30.07,10.0,SSW,9.2,-,N/A,,Clear,200,2013-04-07 22:53:00
7:53 PM,64.9,42.1,43,30.06,10.0,South,8.1,-,N/A,,Clear,190,2013-04-07 23:53:00
8:53 PM,62.1,42.1,48,30.08,10.0,South,3.5,-,N/A,,Clear,190,2013-04-08 00:53:00
9:53 PM,60.1,42.1,51,30.09,10.0,Calm,Calm,-,N/A,,Clear,0,2013-04-08 01:53:00
10:53 PM,60.1,42.1,51,30.08,10.0,Calm,Calm,-,N/A,,Clear,0,2013-04-08 02:53:00
11:53 PM,57.9,42.1,56,30.06,10.0,Calm,Calm,-,N/A,,Clear,0,2013-04-08 03:53:00